Miscellaneous Local Product
Issued by NWS Hastings, NE

Home | Current Version | Previous Version | Text Only | Print | Product List | Glossary On
Versions: 1 2 3 4 5 6 7 8 9 10 11 12 13 14 15 16 17 18 19 20 21 22 23 24 25 26 27 28 29 30 31 32 33 34 35 36 37 38 39 40 41 42 43 44 45 46 47 48 49 50
625
AXUS43 KGID 061102
MISGRI

GID CWA HOURLY WEATHER ROUNDUP
NATIONAL WEATHER SERVICE HASTINGS NE
600 AM CDT FRI MAY 06 2016

NOTE: "FAIR" INDICATES FEW OR NO CLOUDS BELOW 12,000 FEET WITH NO
SIGNIFICANT WEATHER AND/OR OBSTRUCTIONS TO VISIBILITY.

...SOUTH CENTRAL NEBRASKA...

CITY           SKY/WX    TMP DP  RH WIND       PRES   REMARKS
GRAND ISLAND   CLEAR     58  42  55 S12       29.99F
HASTINGS       CLEAR     54  42  64 S7        30.00F
KEARNEY        CLEAR     55  43  62 S12       30.00S
ORD            PTCLDY    51  44  77 CALM      29.96F
YORK           CLEAR     50  43  76 SW7       30.01S
AURORA         CLEAR     54  42  66 SW9       30.00S
HOLDREGE       CLEAR     54  43  65 S8        30.00F
HEBRON         CLEAR     53  43  69 S3        30.02S

...NEBRASKA PANHANDLE...

CITY           SKY/WX    TMP DP  RH WIND       PRES   REMARKS
CHADRON        PTCLDY    50  45  83 N7        29.88S
ALLIANCE       CLOUDY    45  42  89 SE9       29.94S
SCOTTSBLUFF    CLOUDY    60  43  53 E3        29.93S
SIDNEY         CLOUDY    52  44  74 SW13      29.96F

...WESTERN AND NORTH CENTRAL NEBRASKA...

CITY           SKY/WX    TMP DP  RH WIND       PRES   REMARKS
VALENTINE      CLEAR     60  47  61 SW15      29.90S
AINSWORTH      CLEAR     58  46  65 S14       29.92S
ONEILL         CLEAR     58  47  64 S9        29.93F
BROKEN BOW     LGT RAIN  55  45  68 SW10      29.97F
IMPERIAL       CLOUDY    53  45  74 E6        29.97S
NORTH PLATTE   CLEAR     57  45  64 S9        29.96F
MCCOOK         CLOUDY    54  45  71 SE7       29.98F

...EASTERN NEBRASKA...

CITY           SKY/WX    TMP DP  RH WIND       PRES   REMARKS
NORFOLK        CLEAR     57  42  57 SW12      29.96S
SO SIOUX CITY  CLEAR     49  43  80 E7        29.96S
TEKAMAH        CLEAR     50  44  80 SE7       29.98R
COLUMBUS       CLEAR     55  37  50 SW6       30.00R
ALBION         CLEAR     54  42  64 S3        29.98S
OMAHA EPPLEY   PTCLDY    53  44  71 SE9       29.99S
MILLARD        CLEAR     49  45  85 CALM      30.00R
LINCOLN        CLEAR     55  43  63 CALM      30.02R
NEBRASKA CITY  CLEAR     56  42  59 SW10      30.01S
BEATRICE       CLEAR     49  44  81 E3        30.02S
FALLS CITY     CLEAR     51  43  74 SE3       30.02S

...NORTHERN KANSAS...

CITY           SKY/WX    TMP DP  RH WIND       PRES   REMARKS
GOODLAND       CLOUDY    56  45  66 S21       29.98F
HILL CITY      CLOUDY    57  44  62 CALM      30.01F
NORTON         SUNNY     55  39  54 S9        30.00S
PHILLIPSBURG   CLEAR     48  45  87 E3        30.01S
SMITH CENTER   CLEAR     46  43  87 SE6       30.02S
BELOIT         CLEAR     45  41  87 CALM      30.02F
HAYS           CLOUDY    54  39  58 S5        30.03S
RUSSELL        CLOUDY    53  45  74 S10       30.02S
CONCORDIA      CLEAR     55  42  61 SW10      30.02S
SALINA         CLEAR     52  45  77 SW8       30.04S
TOPEKA         CLEAR     50  47  89 CALM      30.05S



USA.gov is the U.S. government's official web portal to all federal, state and local government web resources and services.